Location: Archemont
(49.1579°N, 1.7598°E)
Time: 09:44:11
(UTC+00:00)

Altair - Pass Details

Date: 17 April 2024
Orbit: 1501 x 1682 km, 47.2° (Epoch: 17 May)

Event Time Altitude Azimuth Distance (km) Brightness Sun altitude
Rises 03:23:31 0° 287° (WNW) 4,754 9.7 -14.4°
Reaches altitude 10° 03:27:57 10° 270° (W) 3,733 9.0 -13.9°
Maximum altitude 03:33:29 17° 233° (SW) 3,141 8.5 -13.1°
Drops below altitude 10° 03:38:56 10° 196° (SSW) 3,662 9.0 -12.4°
Sets 03:43:15 0° 178° (S) 4,625 9.7 -11.8°
